Time,TemperatureF,DewpointF,PressureIn,WindDirection,WindDirectionDegrees,WindSpeedMPH,WindSpeedGustMPH,Humidity,HourlyPrecipIn,Conditions,Clouds,dailyrainin,SoftwareType,DateUTC
2013-06-08 00:00:00,62.5,56.3,29.76,NW,311,0.0,1.0,80,0.00,,OVC110,0.00,VWS V14.01,2013-06-08 05:00:00,
2013-06-08 00:04:00,62.4,56.2,29.76,NW,311,0.0,1.0,80,0.00,,CLR,0.00,VWS V14.01,2013-06-08 05:04:00,
2013-06-08 00:10:00,62.2,56.0,29.76,NW,311,0.0,2.0,80,0.00,,CLR,0.00,VWS V14.01,2013-06-08 05:10:00,
2013-06-08 00:15:00,62.0,55.8,29.76,NW,311,0.0,2.0,80,0.00,,CLR,0.00,VWS V14.01,2013-06-08 05:15:00,
2013-06-08 00:20:00,61.9,56.0,29.77,NW,311,0.0,2.0,81,0.00,,CLR,0.00,VWS V14.01,2013-06-08 05:20:00,
2013-06-08 00:25:00,61.7,55.8,29.76,NW,311,0.0,2.0,81,0.00,,CLR,0.00,VWS V14.01,2013-06-08 05:25:00,
2013-06-08 00:30:00,61.6,55.7,29.77,NW,309,0.0,1.0,81,0.00,,CLR,0.00,VWS V14.01,2013-06-08 05:30:00,
2013-06-08 00:35:00,61.6,55.7,29.77,NW,309,0.0,2.0,81,0.00,,CLR,0.00,VWS V14.01,2013-06-08 05:35:00,
2013-06-08 00:40:00,61.5,55.6,29.77,NW,309,0.0,2.0,81,0.00,,CLR,0.00,VWS V14.01,2013-06-08 05:40:00,
2013-06-08 00:45:00,61.5,55.6,29.77,NW,311,0.0,2.0,81,0.00,,CLR,0.00,VWS V14.01,2013-06-08 05:45:00,
2013-06-08 00:50:00,61.5,55.6,29.77,NW,310,0.0,2.0,81,0.00,,CLR,0.00,VWS V14.01,2013-06-08 05:50:00,
2013-06-08 00:55:00,61.4,55.5,29.77,NW,310,0.0,2.0,81,0.00,,CLR,0.00,VWS V14.01,2013-06-08 05:55:00,
2013-06-08 01:00:00,61.3,55.4,29.77,NW,310,0.0,0.0,81,0.00,,CLR,0.00,VWS V14.01,2013-06-08 06:00:00,
2013-06-08 01:06:00,61.1,55.6,29.77,NW,310,0.0,0.0,82,0.00,,CLR,0.00,VWS V14.01,2013-06-08 06:06:00,
2013-06-08 01:11:00,60.9,55.4,29.76,NW,310,0.0,0.0,82,0.00,,CLR,0.00,VWS V14.01,2013-06-08 06:11:00,
2013-06-08 01:16:00,60.8,55.3,29.76,NW,310,0.0,1.0,82,0.00,,CLR,0.00,VWS V14.01,2013-06-08 06:16:00,
2013-06-08 01:21:00,60.7,55.5,29.76,NW,311,0.0,2.0,83,0.00,,CLR,0.00,VWS V14.01,2013-06-08 06:21:00,
2013-06-08 01:26:00,60.7,55.5,29.76,NW,311,0.0,2.0,83,0.00,,CLR,0.00,VWS V14.01,2013-06-08 06:26:00,
2013-06-08 01:30:00,60.7,55.2,29.76,NW,311,0.0,2.0,82,0.00,,OVC110,0.00,VWS V14.01,2013-06-08 06:30:00,
2013-06-08 01:31:00,60.7,55.2,29.76,NW,311,0.0,0.0,82,0.00,,CLR,0.00,VWS V14.01,2013-06-08 06:31:00,
2013-06-08 01:37:00,60.6,55.1,29.76,NW,311,1.0,1.0,82,0.00,,CLR,0.00,VWS V14.01,2013-06-08 06:37:00,
2013-06-08 01:42:00,60.5,55.0,29.76,NW,311,0.0,1.0,82,0.00,,CLR,0.00,VWS V14.01,2013-06-08 06:42:00,
2013-06-08 01:47:00,60.5,55.3,29.76,NW,311,0.0,1.0,83,0.00,,CLR,0.00,VWS V14.01,2013-06-08 06:47:00,
2013-06-08 01:52:00,60.4,55.2,29.76,NW,311,0.0,1.0,83,0.00,,CLR,0.00,VWS V14.01,2013-06-08 06:52:00,
2013-06-08 01:57:00,60.4,55.2,29.76,NW,311,0.0,1.0,83,0.00,,CLR,0.00,VWS V14.01,2013-06-08 06:57:00,
2013-06-08 02:00:00,60.4,55.2,29.76,NW,311,0.0,1.0,83,0.00,,OVC110,0.00,VWS V14.01,2013-06-08 07:00:00,
2013-06-08 02:02:00,60.3,55.1,29.76,NW,311,0.0,0.0,83,0.00,,CLR,0.00,VWS V14.01,2013-06-08 07:02:00,
2013-06-08 02:07:00,60.3,55.1,29.76,NW,311,0.0,0.0,83,0.00,,CLR,0.00,VWS V14.01,2013-06-08 07:07:00,
2013-06-08 02:13:00,60.2,55.0,29.76,NW,311,0.0,0.0,83,0.00,,CLR,0.00,VWS V14.01,2013-06-08 07:13:00,
2013-06-08 02:18:00,60.1,54.9,29.76,NW,311,0.0,0.0,83,0.00,,CLR,0.00,VWS V14.01,2013-06-08 07:18:00,
2013-06-08 02:23:00,60.0,55.2,29.76,NW,311,0.0,0.0,84,0.00,,CLR,0.00,VWS V14.01,2013-06-08 07:23:00,
2013-06-08 02:28:00,59.9,55.1,29.76,NW,311,0.0,0.0,84,0.00,,CLR,0.00,VWS V14.01,2013-06-08 07:28:00,
2013-06-08 02:30:00,59.9,55.1,29.76,NW,311,0.0,0.0,84,0.00,,OVC110,0.00,VWS V14.01,2013-06-08 07:30:00,
2013-06-08 02:33:00,59.9,55.1,29.76,NW,311,0.0,0.0,84,0.00,,CLR,0.00,VWS V14.01,2013-06-08 07:33:00,
2013-06-08 02:38:00,59.8,55.0,29.76,NW,311,0.0,0.0,84,0.00,,CLR,0.00,VWS V14.01,2013-06-08 07:38:00,
2013-06-08 02:43:00,59.7,54.9,29.76,NW,311,0.0,0.0,84,0.00,,CLR,0.00,VWS V14.01,2013-06-08 07:43:00,
2013-06-08 02:48:00,59.7,54.9,29.76,NW,311,0.0,0.0,84,0.00,,CLR,0.00,VWS V14.01,2013-06-08 07:48:00,
2013-06-08 02:53:00,59.5,54.7,29.76,NW,311,0.0,0.0,84,0.00,,CLR,0.00,VWS V14.01,2013-06-08 07:53:00,
2013-06-08 02:58:00,59.3,54.5,29.76,NW,311,0.0,0.0,84,0.00,,CLR,0.00,VWS V14.01,2013-06-08 07:58:00,
2013-06-08 03:00:00,59.3,54.5,29.76,NW,311,0.0,0.0,84,0.00,,OVC110,0.00,VWS V14.01,2013-06-08 08:00:00,
2013-06-08 03:03:00,59.2,54.7,29.76,NW,311,0.0,0.0,85,0.00,,CLR,0.00,VWS V14.01,2013-06-08 08:03:00,
2013-06-08 03:09:00,59.0,54.5,29.76,NW,311,0.0,0.0,85,0.00,,CLR,0.00,VWS V14.01,2013-06-08 08:09:00,
2013-06-08 03:14:00,58.9,54.4,29.76,NW,311,0.0,0.0,85,0.00,,CLR,0.00,VWS V14.01,2013-06-08 08:14:00,
2013-06-08 03:19:00,58.7,54.2,29.76,NW,311,0.0,0.0,85,0.00,,CLR,0.00,VWS V14.01,2013-06-08 08:19:00,
2013-06-08 03:24:00,58.6,54.4,29.76,NW,311,0.0,0.0,86,0.00,,CLR,0.00,VWS V14.01,2013-06-08 08:24:00,
2013-06-08 03:29:00,58.4,54.2,29.76,NW,311,0.0,0.0,86,0.00,,CLR,0.00,VWS V14.01,2013-06-08 08:29:00,
2013-06-08 03:30:00,58.4,54.2,29.76,NW,311,0.0,0.0,86,0.00,,OVC110,0.00,VWS V14.01,2013-06-08 08:30:00,
2013-06-08 03:34:00,58.3,54.1,29.76,NW,311,0.0,0.0,86,0.00,,CLR,0.00,VWS V14.01,2013-06-08 08:34:00,
2013-06-08 03:39:00,58.1,53.9,29.76,NW,311,0.0,0.0,86,0.00,,CLR,0.00,VWS V14.01,2013-06-08 08:39:00,
2013-06-08 03:44:00,58.0,54.2,29.76,NW,311,0.0,0.0,87,0.00,,CLR,0.00,VWS V14.01,2013-06-08 08:44:00,
2013-06-08 03:49:00,57.8,54.0,29.76,NW,311,0.0,0.0,87,0.00,,CLR,0.00,VWS V14.01,2013-06-08 08:49:00,
2013-06-08 03:54:00,57.7,53.9,29.76,NW,311,0.0,0.0,87,0.00,,CLR,0.00,VWS V14.01,2013-06-08 08:54:00,
2013-06-08 03:59:00,57.5,54.0,29.76,NW,311,0.0,0.0,88,0.00,,CLR,0.00,VWS V14.01,2013-06-08 08:59:00,
2013-06-08 04:00:00,57.5,54.0,29.76,NW,311,0.0,0.0,88,0.00,,OVC110,0.00,VWS V14.01,2013-06-08 09:00:00,
2013-06-08 04:04:00,57.4,53.9,29.76,NW,311,0.0,0.0,88,0.00,,CLR,0.00,VWS V14.01,2013-06-08 09:04:00,
2013-06-08 04:09:00,57.4,53.9,29.76,NW,311,0.0,0.0,88,0.00,,CLR,0.00,VWS V14.01,2013-06-08 09:09:00,
2013-06-08 04:14:00,57.3,54.1,29.76,NW,311,0.0,0.0,89,0.00,,CLR,0.00,VWS V14.01,2013-06-08 09:14:00,
2013-06-08 04:19:00,57.3,54.1,29.76,NW,311,0.0,0.0,89,0.00,,CLR,0.00,VWS V14.01,2013-06-08 09:19:00,
2013-06-08 04:24:00,57.3,54.4,29.76,NW,311,0.0,0.0,90,0.00,,CLR,0.00,VWS V14.01,2013-06-08 09:24:00,
2013-06-08 04:30:00,57.3,54.1,29.76,NW,311,0.0,0.0,89,0.00,,CLR,0.00,VWS V14.01,2013-06-08 09:30:00,
2013-06-08 04:35:00,57.2,54.3,29.76,NW,311,0.0,0.0,90,0.00,,CLR,0.00,VWS V14.01,2013-06-08 09:35:00,
2013-06-08 04:40:00,57.2,54.3,29.77,NW,311,0.0,0.0,90,0.00,,CLR,0.00,VWS V14.01,2013-06-08 09:40:00,
2013-06-08 04:45:00,57.3,54.4,29.77,NW,311,0.0,0.0,90,0.00,,CLR,0.00,VWS V14.01,2013-06-08 09:45:00,
2013-06-08 04:50:00,57.3,54.4,29.77,NW,311,0.0,0.0,90,0.00,,CLR,0.00,VWS V14.01,2013-06-08 09:50:00,
2013-06-08 04:55:00,57.3,54.4,29.77,NW,311,0.0,0.0,90,0.00,,,0.00,VWS V14.01,2013-06-08 09:55:00,
2013-06-08 05:00:00,57.3,54.4,29.77,NW,311,0.0,0.0,90,0.00,,,0.00,VWS V14.01,2013-06-08 10:00:00,
2013-06-08 05:05:00,57.3,54.7,29.77,NW,311,0.0,0.0,91,0.00,,,0.00,VWS V14.01,2013-06-08 10:05:00,
2013-06-08 05:10:00,57.3,54.4,29.77,NW,311,0.0,0.0,90,0.00,,,0.00,VWS V14.01,2013-06-08 10:10:00,
2013-06-08 05:15:00,57.3,54.7,29.78,NW,311,0.0,0.0,91,0.00,,,0.00,VWS V14.01,2013-06-08 10:15:00,
2013-06-08 05:20:00,57.4,54.8,29.78,NW,311,0.0,0.0,91,0.00,,,0.00,VWS V14.01,2013-06-08 10:20:00,
2013-06-08 05:26:00,57.4,54.8,29.78,NW,311,0.0,0.0,91,0.00,,,0.00,VWS V14.01,2013-06-08 10:26:00,
2013-06-08 05:30:00,57.4,54.8,29.78,NW,311,0.0,0.0,91,0.00,,OVC110,0.00,VWS V14.01,2013-06-08 10:30:00,
2013-06-08 05:31:00,57.3,54.4,29.78,NW,311,0.0,0.0,90,0.00,,,0.00,VWS V14.01,2013-06-08 10:31:00,
2013-06-08 05:36:00,57.3,54.7,29.78,NW,311,0.0,0.0,91,0.00,,,0.00,VWS V14.01,2013-06-08 10:36:00,
2013-06-08 05:41:00,57.2,54.6,29.79,NW,311,0.0,0.0,91,0.00,,,0.00,VWS V14.01,2013-06-08 10:41:00,
2013-06-08 05:46:00,57.1,54.5,29.79,NW,311,0.0,0.0,91,0.00,,,0.00,VWS V14.01,2013-06-08 10:46:00,
2013-06-08 05:51:00,57.1,54.5,29.79,NW,311,0.0,0.0,91,0.00,,,0.00,VWS V14.01,2013-06-08 10:51:00,
2013-06-08 05:56:00,57.0,54.4,29.79,NW,311,0.0,0.0,91,0.00,,,0.00,VWS V14.01,2013-06-08 10:56:00,
2013-06-08 06:00:00,57.0,54.7,29.79,NW,311,0.0,0.0,92,0.00,,OVC110,0.00,VWS V14.01,2013-06-08 11:00:00,
2013-06-08 06:01:00,57.0,54.7,29.79,NW,311,0.0,0.0,92,0.00,,,0.00,VWS V14.01,2013-06-08 11:01:00,
2013-06-08 06:07:00,57.1,55.1,29.79,NW,311,0.0,0.0,93,0.00,,,0.00,VWS V14.01,2013-06-08 11:07:00,
2013-06-08 06:12:00,57.1,55.1,29.79,NW,311,0.0,0.0,93,0.00,,,0.00,VWS V14.01,2013-06-08 11:12:00,
2013-06-08 06:17:00,57.2,55.5,29.79,NW,311,0.0,0.0,94,0.00,,,0.00,VWS V14.01,2013-06-08 11:17:00,
2013-06-08 06:22:00,57.4,56.0,29.79,NW,311,0.0,0.0,95,0.00,,,0.00,VWS V14.01,2013-06-08 11:22:00,
2013-06-08 06:27:00,57.6,56.2,29.79,NW,311,0.0,0.0,95,0.00,,,0.00,VWS V14.01,2013-06-08 11:27:00,
2013-06-08 06:30:00,57.7,56.3,29.79,NW,311,0.0,0.0,95,0.00,,OVC110,0.00,VWS V14.01,2013-06-08 11:30:00,
2013-06-08 06:32:00,57.7,56.3,29.79,NW,311,0.0,0.0,95,0.00,,,0.00,VWS V14.01,2013-06-08 11:32:00,
2013-06-08 06:37:00,57.8,56.4,29.79,NW,311,0.0,0.0,95,0.00,,,0.00,VWS V14.01,2013-06-08 11:37:00,
2013-06-08 06:42:00,57.8,56.4,29.79,NW,311,0.0,0.0,95,0.00,,,0.00,VWS V14.01,2013-06-08 11:42:00,
2013-06-08 06:47:00,57.9,56.5,29.79,NW,311,0.0,0.0,95,0.00,,,0.00,VWS V14.01,2013-06-08 11:47:00,
2013-06-08 06:52:00,57.9,56.2,29.79,NW,311,0.0,0.0,94,0.00,,,0.00,VWS V14.01,2013-06-08 11:52:00,
2013-06-08 06:58:00,58.1,56.7,29.79,NW,311,0.0,0.0,95,0.00,,,0.00,VWS V14.01,2013-06-08 11:58:00,
2013-06-08 07:00:00,58.2,56.8,29.79,NW,311,0.0,0.0,95,0.00,,OVC110,0.00,VWS V14.01,2013-06-08 12:00:00,
2013-06-08 07:03:00,58.4,57.0,29.79,NW,311,0.0,0.0,95,0.00,,,0.00,VWS V14.01,2013-06-08 12:03:00,
2013-06-08 07:08:00,58.6,57.2,29.79,NW,311,0.0,0.0,95,0.00,,,0.00,VWS V14.01,2013-06-08 12:08:00,
2013-06-08 07:13:00,58.9,57.5,29.79,NW,311,0.0,0.0,95,0.00,,,0.00,VWS V14.01,2013-06-08 12:13:00,
2013-06-08 07:18:00,59.1,57.7,29.79,NW,311,0.0,0.0,95,0.00,,,0.00,VWS V14.01,2013-06-08 12:18:00,
2013-06-08 07:23:00,59.5,58.1,29.79,NW,311,0.0,0.0,95,0.00,,,0.00,VWS V14.01,2013-06-08 12:23:00,
2013-06-08 07:28:00,60.0,58.6,29.79,NW,311,0.0,0.0,95,0.00,,,0.00,VWS V14.01,2013-06-08 12:28:00,
2013-06-08 07:30:00,60.2,58.8,29.79,NW,311,0.0,0.0,95,0.00,,OVC110,0.00,VWS V14.01,2013-06-08 12:30:00,
2013-06-08 07:33:00,60.5,59.1,29.79,NW,311,0.0,0.0,95,0.00,,,0.00,VWS V14.01,2013-06-08 12:33:00,
2013-06-08 07:38:00,60.9,59.5,29.79,NW,311,0.0,0.0,95,0.00,,,0.00,VWS V14.01,2013-06-08 12:38:00,
2013-06-08 07:43:00,61.2,59.5,29.79,NW,311,0.0,0.0,94,0.00,,,0.00,VWS V14.01,2013-06-08 12:43:00,
2013-06-08 07:48:00,61.6,59.9,29.79,NW,311,0.0,0.0,94,0.00,,,0.00,VWS V14.01,2013-06-08 12:48:00,
2013-06-08 07:53:00,61.9,59.9,29.79,NW,311,0.0,1.0,93,0.00,,,0.00,VWS V14.01,2013-06-08 12:53:00,
2013-06-08 07:59:00,62.2,59.5,29.80,ENE,76,1.0,1.0,91,0.00,,,0.00,VWS V14.01,2013-06-08 12:59:00,
2013-06-08 08:00:00,62.2,59.2,29.80,ENE,76,0.0,1.0,90,0.00,,OVC110,0.00,VWS V14.01,2013-06-08 13:00:00,
2013-06-08 08:04:00,62.4,59.4,29.79,ENE,76,0.0,1.0,90,0.00,,,0.00,VWS V14.01,2013-06-08 13:04:00,
2013-06-08 08:09:00,62.7,59.7,29.80,ENE,76,0.0,1.0,90,0.00,,,0.00,VWS V14.01,2013-06-08 13:09:00,
2013-06-08 08:14:00,63.0,59.7,29.80,ENE,72,0.0,1.0,89,0.00,,,0.00,VWS V14.01,2013-06-08 13:14:00,
2013-06-08 08:19:00,63.3,60.0,29.80,ENE,60,0.0,1.0,89,0.00,,,0.00,VWS V14.01,2013-06-08 13:19:00,
2013-06-08 08:24:00,63.6,59.7,29.80,North,355,0.0,3.0,87,0.00,,,0.00,VWS V14.01,2013-06-08 13:24:00,
2013-06-08 08:29:00,63.9,59.6,29.80,ENE,78,0.0,3.0,86,0.00,,,0.00,VWS V14.01,2013-06-08 13:29:00,
2013-06-08 08:30:00,63.9,59.6,29.80,East,79,0.0,3.0,86,0.00,,OVC110,0.00,VWS V14.01,2013-06-08 13:30:00,
2013-06-08 08:34:00,64.1,59.2,29.80,ESE,109,0.0,2.0,84,0.00,,,0.00,VWS V14.01,2013-06-08 13:34:00,
2013-06-08 08:39:00,64.3,59.4,29.80,NW,312,0.0,2.0,84,0.00,,,0.00,VWS V14.01,2013-06-08 13:39:00,
2013-06-08 08:44:00,64.6,59.7,29.80,NE,43,0.0,2.0,84,0.00,,,0.00,VWS V14.01,2013-06-08 13:44:00,
2013-06-08 08:49:00,65.0,59.4,29.80,ENE,64,0.0,2.0,82,0.00,,,0.00,VWS V14.01,2013-06-08 13:49:00,
2013-06-08 08:55:00,65.4,59.8,29.79,East,88,0.0,2.0,82,0.00,,BKN055,0.00,VWS V14.01,2013-06-08 13:55:00,
2013-06-08 09:00:00,65.9,59.6,29.79,ESE,115,1.0,1.0,80,0.00,,BKN055,0.00,VWS V14.01,2013-06-08 14:00:00,
2013-06-08 09:05:00,66.5,60.2,29.79,ESE,107,1.0,2.0,80,0.00,,BKN055,0.00,VWS V14.01,2013-06-08 14:05:00,
2013-06-08 09:10:00,66.8,59.7,29.79,South,169,0.0,2.0,78,0.00,,BKN055,0.00,VWS V14.01,2013-06-08 14:10:00,
2013-06-08 09:15:00,67.5,61.1,29.80,ESE,122,0.0,2.0,80,0.00,,BKN055,0.00,VWS V14.01,2013-06-08 14:15:00,
2013-06-08 09:20:00,68.2,60.3,29.80,ESE,119,2.0,3.0,76,0.00,,BKN055,0.00,VWS V14.01,2013-06-08 14:20:00,
2013-06-08 09:25:00,69.0,59.6,29.80,SE,140,0.0,3.0,72,0.00,,BKN055,0.00,VWS V14.01,2013-06-08 14:25:00,
2013-06-08 09:30:00,69.6,59.4,29.80,SE,133,0.0,1.0,70,0.00,,BKN055,0.00,VWS V14.01,2013-06-08 14:30:00,
2013-06-08 09:35:00,70.2,59.2,29.80,ENE,76,2.0,2.0,68,0.00,,BKN055,0.00,VWS V14.01,2013-06-08 14:35:00,
2013-06-08 09:40:00,70.8,58.9,29.80,East,83,0.0,3.0,66,0.00,,BKN055,0.00,VWS V14.01,2013-06-08 14:40:00,
2013-06-08 09:45:00,71.4,59.0,29.80,SE,140,0.0,3.0,65,0.00,,BKN055,0.00,VWS V14.01,2013-06-08 14:45:00,
2013-06-08 09:50:00,71.7,58.9,29.80,East,86,1.0,3.0,64,0.00,,CLR,0.00,VWS V14.01,2013-06-08 14:50:00,
2013-06-08 09:56:00,72.2,59.8,29.80,ESE,120,1.0,3.0,65,0.00,,CLR,0.00,VWS V14.01,2013-06-08 14:56:00,
2013-06-08 10:00:00,72.7,59.4,29.80,SE,130,0.0,3.0,63,0.00,,OVC110,0.00,VWS V14.01,2013-06-08 15:00:00,
2013-06-08 10:01:00,72.8,59.5,29.80,SSE,151,1.0,1.0,63,0.00,,CLR,0.00,VWS V14.01,2013-06-08 15:01:00,
2013-06-08 10:06:00,73.0,60.1,29.80,SSW,209,1.0,2.0,64,0.00,,CLR,0.00,VWS V14.01,2013-06-08 15:06:00,
2013-06-08 10:11:00,73.3,61.3,29.80,WSW,246,0.0,4.0,66,0.00,,CLR,0.00,VWS V14.01,2013-06-08 15:11:00,
2013-06-08 10:16:00,73.7,60.3,29.80,ESE,117,0.0,4.0,63,0.00,,CLR,0.00,VWS V14.01,2013-06-08 15:16:00,
2013-06-08 10:21:00,74.1,62.5,29.79,ESE,111,0.0,4.0,67,0.00,,CLR,0.00,VWS V14.01,2013-06-08 15:21:00,
2013-06-08 10:26:00,74.4,60.1,29.79,ESE,107,2.0,5.0,61,0.00,,CLR,0.00,VWS V14.01,2013-06-08 15:26:00,
2013-06-08 10:30:00,74.6,60.7,29.79,ESE,117,0.0,5.0,62,0.00,,OVC110,0.00,VWS V14.01,2013-06-08 15:30:00,
2013-06-08 10:31:00,74.8,60.9,29.79,ESE,121,0.0,1.0,62,0.00,,CLR,0.00,VWS V14.01,2013-06-08 15:31:00,
2013-06-08 10:36:00,75.1,58.8,29.79,ESE,117,1.0,7.0,57,0.00,,CLR,0.00,VWS V14.01,2013-06-08 15:36:00,
2013-06-08 10:41:00,75.4,59.6,29.79,South,169,0.0,7.0,58,0.00,,CLR,0.00,VWS V14.01,2013-06-08 15:41:00,
2013-06-08 10:47:00,75.5,60.2,29.79,ESE,110,1.0,7.0,59,0.00,,CLR,0.00,VWS V14.01,2013-06-08 15:47:00,
2013-06-08 10:52:00,75.6,58.8,29.79,South,170,1.0,7.0,56,0.00,,CLR,0.00,VWS V14.01,2013-06-08 15:52:00,
2013-06-08 10:57:00,75.7,57.9,29.79,ESE,118,0.0,7.0,54,0.00,,CLR,0.00,VWS V14.01,2013-06-08 15:57:00,
2013-06-08 11:00:00,75.8,58.5,29.78,SE,142,0.0,7.0,55,0.00,,OVC110,0.00,VWS V14.01,2013-06-08 16:00:00,
2013-06-08 11:02:00,75.9,59.1,29.79,SE,133,0.0,1.0,56,0.00,,CLR,0.00,VWS V14.01,2013-06-08 16:02:00,
2013-06-08 11:07:00,76.2,58.4,29.79,ESE,123,3.0,5.0,54,0.00,,CLR,0.00,VWS V14.01,2013-06-08 16:07:00,
2013-06-08 11:12:00,76.2,59.4,29.78,SSE,167,1.0,5.0,56,0.00,,CLR,0.00,VWS V14.01,2013-06-08 16:12:00,
2013-06-08 11:17:00,76.4,59.1,29.78,ESE,120,1.0,5.0,55,0.00,,CLR,0.00,VWS V14.01,2013-06-08 16:17:00,
2013-06-08 11:23:00,76.7,58.8,29.78,South,188,0.0,5.0,54,0.00,,CLR,0.00,VWS V14.01,2013-06-08 16:23:00,
2013-06-08 11:28:00,76.8,59.9,29.78,SSE,165,0.0,5.0,56,0.00,,CLR,0.00,VWS V14.01,2013-06-08 16:28:00,
2013-06-08 11:30:00,77.0,61.1,29.78,South,178,2.0,5.0,58,0.00,,OVC110,0.00,VWS V14.01,2013-06-08 16:30:00,
2013-06-08 11:33:00,76.9,59.5,29.78,ESE,121,0.0,2.0,55,0.00,,CLR,0.00,VWS V14.01,2013-06-08 16:33:00,
2013-06-08 11:38:00,76.9,58.5,29.78,South,184,0.0,4.0,53,0.00,,CLR,0.00,VWS V14.01,2013-06-08 16:38:00,
2013-06-08 11:43:00,77.1,61.2,29.78,SE,134,1.0,5.0,58,0.00,,CLR,0.00,VWS V14.01,2013-06-08 16:43:00,
2013-06-08 11:48:00,77.5,59.0,29.78,South,190,1.0,5.0,53,0.00,,CLR,0.00,VWS V14.01,2013-06-08 16:48:00,
2013-06-08 11:53:00,77.8,60.9,29.78,SSE,163,2.0,5.0,56,0.00,,CLR,0.00,VWS V14.01,2013-06-08 16:53:00,
2013-06-08 11:58:00,78.1,60.6,29.78,South,169,0.0,5.0,55,0.00,,CLR,0.00,VWS V14.01,2013-06-08 16:58:00,
2013-06-08 12:00:00,78.2,60.2,29.78,SSE,148,0.0,5.0,54,0.00,,OVC110,0.00,VWS V14.01,2013-06-08 17:00:00,
2013-06-08 12:03:00,78.5,61.0,29.78,SE,144,1.0,2.0,55,0.00,,CLR,0.00,VWS V14.01,2013-06-08 17:03:00,
2013-06-08 12:08:00,78.7,61.7,29.78,WSW,251,0.0,4.0,56,0.00,,CLR,0.00,VWS V14.01,2013-06-08 17:08:00,
2013-06-08 12:14:00,78.7,60.7,29.78,West,277,0.0,5.0,54,0.00,,CLR,0.00,VWS V14.01,2013-06-08 17:14:00,
2013-06-08 12:19:00,78.7,61.2,29.77,South,190,1.0,5.0,55,0.00,,CLR,0.00,VWS V14.01,2013-06-08 17:19:00,
2013-06-08 12:24:00,78.3,60.8,29.77,SSE,155,0.0,5.0,55,0.00,,CLR,0.00,VWS V14.01,2013-06-08 17:24:00,
2013-06-08 12:29:00,78.2,60.7,29.77,West,273,1.0,5.0,55,0.00,,CLR,0.00,VWS V14.01,2013-06-08 17:29:00,
2013-06-08 12:30:00,78.2,61.2,29.77,SSE,163,0.0,5.0,56,0.00,,OVC110,0.00,VWS V14.01,2013-06-08 17:30:00,
2013-06-08 12:34:00,78.4,58.8,29.77,SE,144,1.0,3.0,51,0.00,,CLR,0.00,VWS V14.01,2013-06-08 17:34:00,
2013-06-08 12:39:00,78.2,60.7,29.77,SSW,195,0.0,3.0,55,0.00,,CLR,0.00,VWS V14.01,2013-06-08 17:39:00,
2013-06-08 12:44:00,78.1,60.1,29.77,SSE,165,2.0,3.0,54,0.00,,CLR,0.00,VWS V14.01,2013-06-08 17:44:00,
2013-06-08 12:49:00,78.3,58.7,29.77,SSE,168,0.0,3.0,51,0.00,,CLR,0.00,VWS V14.01,2013-06-08 17:49:00,
2013-06-08 12:54:00,78.2,61.2,29.77,South,180,0.0,3.0,56,0.00,,CLR,0.00,VWS V14.01,2013-06-08 17:54:00,
2013-06-08 12:59:00,78.4,61.9,29.77,ESE,105,0.0,3.0,57,0.00,,CLR,0.00,VWS V14.01,2013-06-08 17:59:00,
2013-06-08 13:00:00,78.4,61.9,29.77,ESE,105,0.0,3.0,57,0.00,,OVC110,0.00,VWS V14.01,2013-06-08 18:00:00,
2013-06-08 13:04:00,79.1,61.0,29.76,SSW,209,3.0,4.0,54,0.00,,CLR,0.00,VWS V14.01,2013-06-08 18:04:00,
2013-06-08 13:09:00,79.6,58.2,29.76,South,175,1.0,4.0,48,0.00,,CLR,0.00,VWS V14.01,2013-06-08 18:09:00,
2013-06-08 13:14:00,79.6,59.3,29.76,SE,134,0.0,4.0,50,0.00,,CLR,0.00,VWS V14.01,2013-06-08 18:14:00,
2013-06-08 13:20:00,79.9,59.6,29.76,SSE,162,0.0,4.0,50,0.00,,CLR,0.00,VWS V14.01,2013-06-08 18:20:00,
2013-06-08 13:25:00,80.2,58.8,29.76,SSW,206,0.0,4.0,48,0.00,,CLR,0.00,VWS V14.01,2013-06-08 18:25:00,
2013-06-08 13:30:00,79.5,59.8,29.76,South,173,0.0,0.0,51,0.00,,CLR,0.00,VWS V14.01,2013-06-08 18:30:00,
2013-06-08 13:35:00,79.5,59.8,29.76,NW,305,1.0,1.0,51,0.00,,CLR,0.00,VWS V14.01,2013-06-08 18:35:00,
2013-06-08 13:40:00,79.9,58.5,29.75,South,179,1.0,2.0,48,0.00,,CLR,0.00,VWS V14.01,2013-06-08 18:40:00,
2013-06-08 13:45:00,80.3,57.7,29.76,SSW,200,0.0,4.0,46,0.00,,CLR,0.00,VWS V14.01,2013-06-08 18:45:00,
2013-06-08 13:50:00,79.8,55.3,29.75,South,181,0.0,4.0,43,0.00,,CLR,0.00,VWS V14.01,2013-06-08 18:50:00,
2013-06-08 13:55:00,79.9,56.1,29.75,SSE,163,0.0,4.0,44,0.00,,CLR,0.00,VWS V14.01,2013-06-08 18:55:00,
2013-06-08 14:00:00,79.7,56.5,29.75,SW,219,0.0,1.0,45,0.00,,CLR,0.00,VWS V14.01,2013-06-08 19:00:00,
2013-06-08 14:05:00,79.2,57.2,29.75,SW,223,0.0,1.0,47,0.00,,CLR,0.00,VWS V14.01,2013-06-08 19:05:00,
2013-06-08 14:10:00,79.1,58.3,29.75,SE,136,0.0,4.0,49,0.00,,CLR,0.00,VWS V14.01,2013-06-08 19:10:00,
2013-06-08 14:15:00,79.4,60.3,29.74,WNW,287,0.0,4.0,52,0.00,,CLR,0.00,VWS V14.01,2013-06-08 19:15:00,
2013-06-08 14:20:00,79.9,58.5,29.74,South,188,0.0,4.0,48,0.00,,CLR,0.00,VWS V14.01,2013-06-08 19:20:00,
2013-06-08 14:25:00,80.4,58.9,29.74,SW,234,0.0,4.0,48,0.00,,FEW049,0.00,VWS V14.01,2013-06-08 19:25:00,
2013-06-08 14:30:00,80.7,59.2,29.74,East,98,1.0,1.0,48,0.00,,FEW049,0.00,VWS V14.01,2013-06-08 19:30:00,
2013-06-08 14:35:00,80.8,59.3,29.74,SSE,165,1.0,2.0,48,0.00,,FEW049,0.00,VWS V14.01,2013-06-08 19:35:00,
2013-06-08 14:40:00,80.7,59.2,29.74,WNW,286,0.0,5.0,48,0.00,,FEW049,0.00,VWS V14.01,2013-06-08 19:40:00,
2013-06-08 14:45:00,80.8,58.7,29.74,ENE,61,1.0,5.0,47,0.00,,FEW049,0.00,VWS V14.01,2013-06-08 19:45:00,
2013-06-08 14:50:00,80.7,58.0,29.74,ESE,114,2.0,5.0,46,0.00,,FEW049,0.00,VWS V14.01,2013-06-08 19:50:00,
2013-06-08 14:55:00,80.7,58.0,29.74,South,183,0.0,5.0,46,0.00,,FEW049,0.00,VWS V14.01,2013-06-08 19:55:00,
2013-06-08 15:00:00,80.9,60.0,29.74,South,186,0.0,1.0,49,0.00,,FEW049,0.00,VWS V14.01,2013-06-08 20:00:00,
2013-06-08 15:05:00,81.1,60.2,29.73,ESE,111,1.0,2.0,49,0.00,,SCT060,0.00,VWS V14.01,2013-06-08 20:05:00,
2013-06-08 15:10:00,81.2,58.5,29.74,ESE,123,1.0,2.0,46,0.00,,SCT060,0.00,VWS V14.01,2013-06-08 20:10:00,
2013-06-08 15:15:00,80.7,59.2,29.74,SE,130,0.0,2.0,48,0.00,,SCT060,0.00,VWS V14.01,2013-06-08 20:15:00,
2013-06-08 15:20:00,80.0,58.6,29.73,ESE,121,0.0,3.0,48,0.00,,SCT060,0.00,VWS V14.01,2013-06-08 20:20:00,
2013-06-08 15:25:00,79.7,58.3,29.74,ESE,115,0.0,3.0,48,0.00,,SCT060,0.00,VWS V14.01,2013-06-08 20:25:00,
2013-06-08 15:30:00,79.7,57.7,29.73,South,173,1.0,3.0,47,0.00,,OVC110,0.00,VWS V14.01,2013-06-08 20:30:00,
2013-06-08 15:31:00,79.7,57.7,29.73,South,173,1.0,2.0,47,0.00,,SCT060,0.00,VWS V14.01,2013-06-08 20:31:00,
2013-06-08 15:36:00,79.3,59.1,29.74,South,178,0.0,2.0,50,0.00,,SCT060,0.00,VWS V14.01,2013-06-08 20:36:00,
2013-06-08 15:41:00,78.9,58.7,29.73,South,178,2.0,2.0,50,0.00,,SCT060,0.00,VWS V14.01,2013-06-08 20:41:00,
2013-06-08 15:46:00,78.6,58.4,29.73,South,172,1.0,2.0,50,0.00,,SCT060,0.00,VWS V14.01,2013-06-08 20:46:00,
2013-06-08 15:51:00,78.5,58.3,29.73,SSE,159,1.0,2.0,50,0.00,,SCT060,0.00,VWS V14.01,2013-06-08 20:51:00,
2013-06-08 15:56:00,78.7,57.4,29.73,South,184,0.0,3.0,48,0.00,,SCT060,0.00,VWS V14.01,2013-06-08 20:56:00,
2013-06-08 16:00:00,78.6,57.9,29.73,South,169,1.0,3.0,49,0.00,,OVC110,0.00,VWS V14.01,2013-06-08 21:00:00,
2013-06-08 16:01:00,78.5,58.3,29.73,West,278,0.0,1.0,50,0.00,,FEW060,0.00,VWS V14.01,2013-06-08 21:01:00,
2013-06-08 16:07:00,78.3,59.8,29.73,West,281,0.0,1.0,53,0.00,,FEW060,0.00,VWS V14.01,2013-06-08 21:07:00,
2013-06-08 16:12:00,78.1,59.6,29.73,SW,219,0.0,1.0,53,0.00,,FEW060,0.00,VWS V14.01,2013-06-08 21:12:00,
2013-06-08 16:17:00,78.4,59.9,29.73,South,182,0.0,1.0,53,0.00,,FEW060,0.00,VWS V14.01,2013-06-08 21:17:00,
2013-06-08 16:22:00,78.4,57.1,29.73,South,171,1.0,2.0,48,0.00,,FEW060,0.00,VWS V14.01,2013-06-08 21:22:00,
2013-06-08 16:27:00,78.1,58.5,29.73,South,171,0.0,2.0,51,0.00,,FEW060,0.00,VWS V14.01,2013-06-08 21:27:00,
2013-06-08 16:30:00,77.9,59.4,29.73,SW,216,0.0,2.0,53,0.00,,OVC110,0.00,VWS V14.01,2013-06-08 21:30:00,
2013-06-08 16:32:00,77.8,59.3,29.73,SSW,213,0.0,1.0,53,0.00,,FEW060,0.00,VWS V14.01,2013-06-08 21:32:00,
2013-06-08 16:37:00,78.1,58.5,29.73,South,180,1.0,2.0,51,0.00,,FEW060,0.00,VWS V14.01,2013-06-08 21:37:00,
2013-06-08 16:42:00,78.3,59.2,29.73,South,176,1.0,2.0,52,0.00,,FEW060,0.00,VWS V14.01,2013-06-08 21:42:00,
2013-06-08 16:47:00,78.2,57.5,29.73,SSW,207,0.0,2.0,49,0.00,,FEW060,0.00,VWS V14.01,2013-06-08 21:47:00,
2013-06-08 16:52:00,78.2,58.6,29.73,SSW,200,0.0,2.0,51,0.00,,FEW060,0.00,VWS V14.01,2013-06-08 21:52:00,
2013-06-08 16:58:00,78.4,58.2,29.73,South,177,0.0,2.0,50,0.00,,FEW060,0.00,VWS V14.01,2013-06-08 21:58:00,
2013-06-08 17:00:00,78.5,57.8,29.72,South,180,0.0,2.0,49,0.00,,OVC110,0.00,VWS V14.01,2013-06-08 22:00:00,
2013-06-08 17:03:00,78.7,55.6,29.72,SSW,197,0.0,3.0,45,0.00,,BKN070,0.00,VWS V14.01,2013-06-08 22:03:00,
2013-06-08 17:08:00,78.8,56.9,29.72,SSE,165,1.0,3.0,47,0.00,,BKN070,0.00,VWS V14.01,2013-06-08 22:08:00,
2013-06-08 17:13:00,78.9,58.1,29.72,SW,219,0.0,3.0,49,0.00,,BKN070,0.00,VWS V14.01,2013-06-08 22:13:00,
2013-06-08 17:18:00,79.0,58.2,29.72,SW,218,0.0,3.0,49,0.00,,BKN070,0.00,VWS V14.01,2013-06-08 22:18:00,
2013-06-08 17:23:00,79.1,58.9,29.72,SSE,163,0.0,3.0,50,0.00,,BKN070,0.00,VWS V14.01,2013-06-08 22:23:00,
2013-06-08 17:28:00,78.9,56.4,29.72,SSW,194,0.0,3.0,46,0.00,,BKN070,0.00,VWS V14.01,2013-06-08 22:28:00,
2013-06-08 17:30:00,78.9,57.0,29.72,SE,136,0.0,3.0,47,0.00,,OVC110,0.00,VWS V14.01,2013-06-08 22:30:00,
2013-06-08 17:33:00,78.8,56.9,29.72,ESE,115,1.0,2.0,47,0.00,,BKN070,0.00,VWS V14.01,2013-06-08 22:33:00,
2013-06-08 17:38:00,78.8,56.9,29.72,SSE,153,0.0,3.0,47,0.00,,BKN070,0.00,VWS V14.01,2013-06-08 22:38:00,
2013-06-08 17:43:00,78.8,56.9,29.72,SSE,161,1.0,3.0,47,0.00,,BKN070,0.00,VWS V14.01,2013-06-08 22:43:00,
2013-06-08 17:49:00,78.9,57.0,29.72,SSW,196,0.0,3.0,47,0.00,,BKN070,0.00,VWS V14.01,2013-06-08 22:49:00,
2013-06-08 17:54:00,78.8,56.3,29.71,SW,231,0.0,3.0,46,0.00,,CLR,0.00,VWS V14.01,2013-06-08 22:54:00,
2013-06-08 17:59:00,78.8,56.9,29.71,SE,128,0.0,3.0,47,0.00,,CLR,0.00,VWS V14.01,2013-06-08 22:59:00,
2013-06-08 18:00:00,78.8,57.5,29.71,SE,142,0.0,3.0,48,0.00,,OVC110,0.00,VWS V14.01,2013-06-08 23:00:00,
2013-06-08 18:04:00,78.8,56.9,29.71,South,188,0.0,2.0,47,0.00,,CLR,0.00,VWS V14.01,2013-06-08 23:04:00,
2013-06-08 18:09:00,78.7,56.2,29.71,South,173,0.0,2.0,46,0.00,,CLR,0.00,VWS V14.01,2013-06-08 23:09:00,
2013-06-08 18:14:00,78.7,56.2,29.71,South,172,0.0,2.0,46,0.00,,CLR,0.00,VWS V14.01,2013-06-08 23:14:00,
2013-06-08 18:19:00,78.6,57.3,29.71,West,269,0.0,2.0,48,0.00,,CLR,0.00,VWS V14.01,2013-06-08 23:19:00,
2013-06-08 18:24:00,78.5,56.6,29.71,SSE,153,0.0,2.0,47,0.00,,CLR,0.00,VWS V14.01,2013-06-08 23:24:00,
2013-06-08 18:29:00,78.4,57.1,29.71,SSE,168,0.0,2.0,48,0.00,,CLR,0.00,VWS V14.01,2013-06-08 23:29:00,
2013-06-08 18:30:00,78.4,57.1,29.71,SSW,210,1.0,2.0,48,0.00,,OVC110,0.00,VWS V14.01,2013-06-08 23:30:00,
2013-06-08 18:34:00,78.4,57.1,29.71,SSE,168,1.0,2.0,48,0.00,,CLR,0.00,VWS V14.01,2013-06-08 23:34:00,
2013-06-08 18:39:00,78.3,58.2,29.70,SE,142,0.0,2.0,50,0.00,,CLR,0.00,VWS V14.01,2013-06-08 23:39:00,
2013-06-08 18:44:00,78.1,58.0,29.70,ESE,118,0.0,2.0,50,0.00,,CLR,0.00,VWS V14.01,2013-06-08 23:44:00,
2013-06-08 18:49:00,77.8,58.2,29.71,SE,146,0.0,2.0,51,0.00,,CLR,0.00,VWS V14.01,2013-06-08 23:49:00,
2013-06-08 18:55:00,77.7,58.7,29.71,SSW,198,0.0,3.0,52,0.00,,CLR,0.00,VWS V14.01,2013-06-08 23:55:00,
2013-06-08 19:00:00,77.6,59.1,29.71,SE,144,0.0,0.0,53,0.00,,CLR,0.00,VWS V14.01,2013-06-09 00:00:00,
2013-06-08 19:05:00,77.7,59.8,29.71,SE,144,0.0,1.0,54,0.00,,CLR,0.00,VWS V14.01,2013-06-09 00:05:00,
2013-06-08 19:10:00,77.6,59.7,29.71,ESE,123,0.0,2.0,54,0.00,,CLR,0.00,VWS V14.01,2013-06-09 00:10:00,
2013-06-08 19:15:00,77.5,59.0,29.71,SSE,163,0.0,2.0,53,0.00,,CLR,0.00,VWS V14.01,2013-06-09 00:15:00,
2013-06-08 19:20:00,77.3,59.9,29.71,SSE,158,0.0,2.0,55,0.00,,CLR,0.00,VWS V14.01,2013-06-09 00:20:00,
2013-06-08 19:25:00,77.2,59.8,29.71,South,184,0.0,2.0,55,0.00,,CLR,0.00,VWS V14.01,2013-06-09 00:25:00,
2013-06-08 19:30:00,77.0,60.1,29.71,South,184,0.0,0.0,56,0.00,,CLR,0.00,VWS V14.01,2013-06-09 00:30:00,
2013-06-08 19:35:00,76.8,59.9,29.71,South,184,0.0,1.0,56,0.00,,CLR,0.00,VWS V14.01,2013-06-09 00:35:00,
2013-06-08 19:40:00,76.6,60.2,29.71,South,184,0.0,1.0,57,0.00,,CLR,0.00,VWS V14.01,2013-06-09 00:40:00,
2013-06-08 19:45:00,76.4,60.5,29.72,South,177,0.0,1.0,58,0.00,,CLR,0.00,VWS V14.01,2013-06-09 00:45:00,
2013-06-08 19:50:00,76.2,60.4,29.72,South,177,0.0,1.0,58,0.00,,CLR,0.00,VWS V14.01,2013-06-09 00:50:00,
2013-06-08 19:55:00,76.0,60.7,29.72,South,177,0.0,1.0,59,0.00,,CLR,0.00,VWS V14.01,2013-06-09 00:55:00,
2013-06-08 20:00:00,75.8,60.5,29.72,SSW,205,0.0,0.0,59,0.00,,CLR,0.00,VWS V14.01,2013-06-09 01:00:00,
2013-06-08 20:06:00,75.7,60.4,29.72,SSE,149,0.0,1.0,59,0.00,,CLR,0.00,VWS V14.01,2013-06-09 01:06:00,
2013-06-08 20:11:00,75.5,60.7,29.72,ESE,114,0.0,1.0,60,0.00,,CLR,0.00,VWS V14.01,2013-06-09 01:11:00,
2013-06-08 20:16:00,75.3,60.5,29.71,ESE,116,0.0,2.0,60,0.00,,CLR,0.00,VWS V14.01,2013-06-09 01:16:00,
2013-06-08 20:21:00,75.0,60.7,29.71,ESE,116,0.0,2.0,61,0.00,,CLR,0.00,VWS V14.01,2013-06-09 01:21:00,
2013-06-08 20:26:00,74.6,60.3,29.71,SE,126,1.0,2.0,61,0.00,,CLR,0.00,VWS V14.01,2013-06-09 01:26:00,
2013-06-08 20:30:00,74.4,60.1,29.71,South,190,0.0,2.0,61,0.00,,OVC110,0.00,VWS V14.01,2013-06-09 01:30:00,
2013-06-08 20:31:00,74.3,60.5,29.71,SE,127,0.0,0.0,62,0.00,,CLR,0.00,VWS V14.01,2013-06-09 01:31:00,
2013-06-08 20:36:00,74.0,60.2,29.71,ESE,123,0.0,1.0,62,0.00,,CLR,0.00,VWS V14.01,2013-06-09 01:36:00,
2013-06-08 20:41:00,73.8,60.4,29.71,ESE,110,0.0,1.0,63,0.00,,CLR,0.00,VWS V14.01,2013-06-09 01:41:00,
2013-06-08 20:47:00,73.6,60.2,29.72,SSE,150,0.0,1.0,63,0.00,,CLR,0.00,VWS V14.01,2013-06-09 01:47:00,
2013-06-08 20:51:00,73.3,60.0,29.72,ESE,119,1.0,1.0,63,0.00,,CLR,0.00,VWS V14.01,2013-06-09 01:51:00,
2013-06-08 20:57:00,73.1,59.8,29.72,ESE,119,0.0,1.0,63,0.00,,CLR,0.00,VWS V14.01,2013-06-09 01:57:00,
2013-06-08 21:00:00,73.0,60.1,29.72,ESE,119,0.0,1.0,64,0.00,,OVC110,0.00,VWS V14.01,2013-06-09 02:00:00,
2013-06-08 21:02:00,72.8,59.9,29.73,ESE,119,0.0,0.0,64,0.00,,CLR,0.00,VWS V14.01,2013-06-09 02:02:00,
2013-06-08 21:07:00,72.6,59.7,29.73,ESE,119,0.0,0.0,64,0.00,,CLR,0.00,VWS V14.01,2013-06-09 02:07:00,
2013-06-08 21:12:00,72.4,60.0,29.73,SE,130,0.0,0.0,65,0.00,,CLR,0.00,VWS V14.01,2013-06-09 02:12:00,
2013-06-08 21:17:00,72.0,60.0,29.73,SE,130,0.0,1.0,66,0.00,,CLR,0.00,VWS V14.01,2013-06-09 02:17:00,
2013-06-08 21:22:00,71.8,59.8,29.73,SE,130,0.0,1.0,66,0.00,,CLR,0.00,VWS V14.01,2013-06-09 02:22:00,
2013-06-08 21:27:00,71.5,60.0,29.74,SSE,167,0.0,1.0,67,0.00,,CLR,0.00,VWS V14.01,2013-06-09 02:27:00,
2013-06-08 21:30:00,71.4,59.9,29.74,SSE,167,0.0,1.0,67,0.00,,OVC110,0.00,VWS V14.01,2013-06-09 02:30:00,
2013-06-08 21:32:00,71.3,60.2,29.74,SSE,167,0.0,0.0,68,0.00,,CLR,0.00,VWS V14.01,2013-06-09 02:32:00,
2013-06-08 21:37:00,71.0,60.3,29.74,SSE,167,0.0,0.0,69,0.00,,CLR,0.00,VWS V14.01,2013-06-09 02:37:00,
2013-06-08 21:42:00,70.8,60.1,29.74,SSE,167,0.0,0.0,69,0.00,,CLR,0.00,VWS V14.01,2013-06-09 02:42:00,
2013-06-08 21:47:00,70.6,60.0,29.75,SSE,167,0.0,0.0,69,0.00,,CLR,0.00,VWS V14.01,2013-06-09 02:47:00,
2013-06-08 21:52:00,70.4,60.2,29.75,SSE,167,0.0,0.0,70,0.00,,FEW060,0.00,VWS V14.01,2013-06-09 02:52:00,
2013-06-08 21:57:00,70.2,60.4,29.75,SSE,167,0.0,0.0,71,0.00,,FEW060,0.00,VWS V14.01,2013-06-09 02:57:00,
2013-06-08 22:00:00,70.1,59.9,29.75,SSE,167,0.0,0.0,70,0.00,,OVC110,0.00,VWS V14.01,2013-06-09 03:00:00,
2013-06-08 22:02:00,70.0,60.2,29.76,SSE,167,0.0,0.0,71,0.00,,FEW060,0.00,VWS V14.01,2013-06-09 03:02:00,
2013-06-08 22:08:00,69.7,59.9,29.76,SSE,167,0.0,0.0,71,0.00,,FEW060,0.00,VWS V14.01,2013-06-09 03:08:00,
2013-06-08 22:13:00,69.5,59.7,29.75,SSE,167,0.0,0.0,71,0.00,,FEW060,0.00,VWS V14.01,2013-06-09 03:13:00,
2013-06-08 22:18:00,69.4,59.6,29.76,SSE,167,0.0,1.0,71,0.00,,FEW060,0.00,VWS V14.01,2013-06-09 03:18:00,
2013-06-08 22:23:00,69.3,59.5,29.76,SSE,167,0.0,1.0,71,0.00,,FEW060,0.00,VWS V14.01,2013-06-09 03:23:00,
2013-06-08 22:28:00,69.3,59.1,29.76,SSE,167,0.0,1.0,70,0.00,,FEW060,0.00,VWS V14.01,2013-06-09 03:28:00,
2013-06-08 22:30:00,69.4,59.2,29.76,SSE,167,0.0,1.0,70,0.00,,OVC110,0.00,VWS V14.01,2013-06-09 03:30:00,
2013-06-08 22:33:00,69.4,59.6,29.76,SSE,167,0.0,0.0,71,0.00,,FEW060,0.00,VWS V14.01,2013-06-09 03:33:00,
2013-06-08 22:38:00,69.5,59.3,29.76,SSE,167,0.0,0.0,70,0.00,,FEW060,0.00,VWS V14.01,2013-06-09 03:38:00,
2013-06-08 22:43:00,69.4,59.2,29.76,SSE,167,0.0,0.0,70,0.00,,FEW060,0.00,VWS V14.01,2013-06-09 03:43:00,
2013-06-08 22:48:00,69.4,59.2,29.76,SSE,167,0.0,0.0,70,0.00,,FEW060,0.00,VWS V14.01,2013-06-09 03:48:00,
2013-06-08 22:53:00,69.3,59.1,29.76,SSE,167,0.0,0.0,70,0.00,,CLR,0.00,VWS V14.01,2013-06-09 03:53:00,
2013-06-08 22:58:00,69.2,59.0,29.76,SSE,167,0.0,0.0,70,0.00,,CLR,0.00,VWS V14.01,2013-06-09 03:58:00,
2013-06-08 23:00:00,69.2,59.0,29.76,SSE,167,0.0,0.0,70,0.00,,OVC110,0.00,VWS V14.01,2013-06-09 04:00:00,
2013-06-08 23:01:00,69.1,58.9,29.76,SSE,167,0.0,0.0,70,0.00,,CLR,0.00,VWS V14.01,2013-06-09 04:01:00,
2013-06-08 23:02:00,69.1,58.9,29.76,SSE,167,0.0,0.0,70,0.00,,CLR,0.00,VWS V14.01,2013-06-09 04:02:00,
2013-06-08 23:03:00,69.1,58.9,29.76,SSE,167,0.0,0.0,70,0.00,,CLR,0.00,VWS V14.01,2013-06-09 04:03:00,
2013-06-08 23:04:00,69.0,58.8,29.76,SSE,167,0.0,0.0,70,0.00,,CLR,0.00,VWS V14.01,2013-06-09 04:04:00,
2013-06-08 23:09:00,68.9,59.1,29.76,SSE,167,0.0,0.0,71,0.00,,CLR,0.00,VWS V14.01,2013-06-09 04:09:00,
2013-06-08 23:14:00,68.7,59.3,29.76,SSE,167,0.0,0.0,72,0.00,,CLR,0.00,VWS V14.01,2013-06-09 04:14:00,
2013-06-08 23:19:00,68.5,58.7,29.76,SSE,167,0.0,0.0,71,0.00,,CLR,0.00,VWS V14.01,2013-06-09 04:19:00,
2013-06-08 23:24:00,68.3,58.9,29.76,SSE,167,0.0,0.0,72,0.00,,CLR,0.00,VWS V14.01,2013-06-09 04:24:00,
2013-06-08 23:29:00,68.1,58.7,29.76,SSE,167,0.0,0.0,72,0.00,,CLR,0.00,VWS V14.01,2013-06-09 04:29:00,
2013-06-08 23:30:00,68.1,58.7,29.76,SSE,167,0.0,0.0,72,0.00,,OVC110,0.00,VWS V14.01,2013-06-09 04:30:00,
2013-06-08 23:34:00,67.9,58.5,29.76,SSE,167,0.0,0.0,72,0.00,,CLR,0.00,VWS V14.01,2013-06-09 04:34:00,
2013-06-08 23:39:00,67.6,58.7,29.76,SSE,167,0.0,0.0,73,0.00,,CLR,0.00,VWS V14.01,2013-06-09 04:39:00,
2013-06-08 23:44:00,67.4,58.8,29.76,SSE,167,0.0,0.0,74,0.00,,CLR,0.00,VWS V14.01,2013-06-09 04:44:00,
2013-06-08 23:49:00,67.2,58.6,29.75,SSE,167,0.0,0.0,74,0.00,,CLR,0.00,VWS V14.01,2013-06-09 04:49:00,
2013-06-08 23:54:00,67.0,58.5,29.75,SSE,167,0.0,0.0,74,0.00,,CLR,0.00,VWS V14.01,2013-06-09 04:54:00,
2013-06-08 23:59:00,66.8,58.3,29.75,SSE,167,0.0,0.0,74,0.00,,CLR,0.00,VWS V14.01,2013-06-09 04:59:00,